Location: Newark
(37.7733°N, 97.7642°W)
Time: 07:37:33
(UTC+00:00)

ISS - Pass Details

Date: 29 July 2019
Orbit: 410 x 420 km, 51.6° (Epoch: 19 August)

Event Time Altitude Azimuth Distance (km) Brightness Sun altitude
Rises 04:26:16 0° 318° (NW) 2,368 1.4 -25.5°
Reaches altitude 10° 04:28:43 10° 336° (NNW) 1,500 0.0 -25.8°
Enters shadow 04:30:42 20° 10° (N) 1,039 -1.3 -26.0°
